| time (UTC) | temp C | wind direction | speed KPH | gust KPH | rain 1hr cm | rain 24hr cm | rain mn cm | humidity % | barometer mb |
| 20260503054503 | 3 | 275 | 0.0 | 0.0 | 0.00 | 0.00 | 0.00 | 89 | 1018.0 |
| 20260503054004 | 3 | 275 | 0.0 | 0.0 | 0.00 | 0.00 | 0.00 | 89 | 1018.0 |
| 20260503053505 | 3 | 275 | 0.0 | 0.0 | 0.00 | 0.00 | 0.00 | 89 | 1018.0 |
| 20260503052504 | 3 | 275 | 0.0 | 0.0 | 0.00 | 0.00 | 0.00 | 89 | 1018.1 |
| 20260503051004 | 3 | 275 | 0.0 | 0.0 | 0.00 | 0.00 | 0.00 | 88 | 1018.1 |
| 20260503050503 | 3 | 275 | 0.0 | 0.0 | 0.00 | 0.00 | 0.00 | 88 | 1018.1 |
| 20260503050005 | 3 | 275 | 0.0 | 0.0 | 0.00 | 0.00 | 0.00 | 88 | 1018.0 |
| 20260503045503 | 3 | 275 | 0.0 | 0.0 | 0.00 | 0.00 | 0.00 | 88 | 1017.9 |
| 20260503044504 | 3 | 275 | 0.0 | 0.0 | 0.00 | 0.00 | 0.00 | 87 | 1017.8 |
| 20260503044004 | 3 | 275 | 0.0 | 0.0 | 0.00 | 0.00 | 0.00 | 87 | 1017.7 |
| 20260503043503 | 3 | 275 | 0.0 | 0.0 | 0.00 | 0.00 | 0.00 | 87 | 1017.6 |
| 20260503043004 | 3 | 275 | 0.0 | 0.0 | 0.00 | 0.00 | 0.00 | 87 | 1017.5 |
| 20260503042504 | 3 | 275 | 0.0 | 0.0 | 0.00 | 0.00 | 0.00 | 86 | 1017.5 |
| 20260503041503 | 4 | 275 | 0.0 | 0.0 | 0.00 | 0.00 | 0.00 | 85 | 1017.5 |
| 20260503041003 | 4 | 275 | 0.0 | 0.0 | 0.00 | 0.00 | 0.00 | 85 | 1017.5 |
| 20260503040503 | 4 | 275 | 0.0 | 0.0 | 0.00 | 0.00 | 0.00 | 84 | 1017.5 |
| 20260503040005 | 4 | 275 | 0.0 | 0.0 | 0.00 | 0.00 | 0.00 | 84 | 1017.4 |
| 20260503035503 | 4 | 275 | 0.0 | 0.0 | 0.00 | 0.00 | 0.00 | 83 | 1017.3 |
| 20260503035004 | 4 | 275 | 0.0 | 0.0 | 0.00 | 0.00 | 0.00 | 83 | 1017.5 |
| 20260503034504 | 5 | 275 | 0.0 | 0.0 | 0.00 | 0.00 | 0.00 | 82 | 1017.4 |
| 20260503034004 | 5 | 275 | 0.0 | 0.0 | 0.00 | 0.00 | 0.00 | 83 | 1017.3 |
| 20260503033503 | 5 | 275 | 0.0 | 0.0 | 0.00 | 0.00 | 0.00 | 82 | 1017.3 |
| 20260503033004 | 5 | 275 | 0.0 | 0.0 | 0.00 | 0.00 | 0.00 | 82 | 1017.2 |
| 20260503032504 | 5 | 275 | 0.0 | 0.0 | 0.00 | 0.00 | 0.00 | 81 | 1017.1 |
| 20260503032005 | 5 | 275 | 0.0 | 0.0 | 0.00 | 0.00 | 0.00 | 81 | 1017.1 |
| 20260503031503 | 5 | 275 | 0.0 | 0.0 | 0.00 | 0.00 | 0.00 | 81 | 1017.0 |
| 20260503031004 | 5 | 275 | 0.0 | 0.0 | 0.00 | 0.00 | 0.00 | 79 | 1017.0 |
| 20260503030504 | 5 | 275 | 0.0 | 0.0 | 0.00 | 0.00 | 0.00 | 79 | 1017.1 |
| 20260503030004 | 6 | 275 | 0.0 | 0.0 | 0.00 | 0.00 | 0.00 | 78 | 1017.0 |
| 20260503024504 | 6 | 275 | 0.0 | 0.0 | 0.00 | 0.00 | 0.00 | 76 | 1016.9 |
| 20260503024004 | 6 | 275 | 0.0 | 0.0 | 0.00 | 0.00 | 0.00 | 77 | 1016.9 |
| 20260503023504 | 6 | 275 | 0.0 | 0.0 | 0.00 | 0.00 | 0.00 | 76 | 1016.9 |
| 20260503023004 | 7 | 275 | 0.0 | 0.0 | 0.00 | 0.00 | 0.00 | 75 | 1016.8 |
| 20260503022504 | 7 | 275 | 0.0 | 0.0 | 0.00 | 0.00 | 0.00 | 73 | 1016.7 |
| 20260503022004 | 7 | 275 | 0.0 | 0.0 | 0.00 | 0.00 | 0.00 | 69 | 1016.6 |
| 20260503021004 | 7 | 275 | 0.0 | 0.0 | 0.00 | 0.00 | 0.00 | 69 | 1016.6 |
| 20260503020504 | 7 | 275 | 0.0 | 0.0 | 0.00 | 0.00 | 0.00 | 67 | 1016.5 |
| 20260503020004 | 8 | 275 | 0.0 | 0.0 | 0.00 | 0.00 | 0.00 | 69 | 1016.5 |
| 20260503015503 | 8 | 275 | 0.0 | 0.0 | 0.00 | 0.00 | 0.00 | 67 | 1016.4 |
| 20260503015003 | 8 | 275 | 0.0 | 0.0 | 0.00 | 0.00 | 0.00 | 68 | 1016.4 |
| 20260503014503 | 8 | 275 | 0.0 | 0.0 | 0.00 | 0.00 | 0.00 | 64 | 1016.3 |
| 20260503014004 | 8 | 275 | 0.0 | 0.0 | 0.00 | 0.00 | 0.00 | 63 | 1016.2 |
| 20260503013004 | 9 | 275 | 0.0 | 0.0 | 0.00 | 0.00 | 0.00 | 62 | 1016.2 |
| 20260503012504 | 10 | 275 | 0.0 | 0.0 | 0.00 | 0.00 | 0.00 | 60 | 1016.1 |
| 20260503012004 | 10 | 275 | 0.0 | 0.0 | 0.00 | 0.00 | 0.00 | 59 | 1016.0 |
| 20260503010504 | 11 | 275 | 0.0 | 0.0 | 0.00 | 0.00 | 0.00 | 57 | 1015.8 |
| 20260503005504 | 11 | 275 | 0.0 | 1.6 | 0.00 | 0.00 | 0.00 | 57 | 1015.6 |
| 20260503005004 | 11 | 275 | 0.0 | 1.6 | 0.00 | 0.00 | 0.00 | 55 | 1015.6 |
| 20260503004504 | 11 | 275 | 0.0 | 3.2 | 0.00 | 0.00 | 0.00 | 54 | 1015.6 |
| 20260503004004 | 11 | 275 | 1.6 | 4.8 | 0.00 | 0.00 | 0.00 | 53 | 1015.5 |
| 20260503003503 | 12 | 275 | 0.0 | 1.6 | 0.00 | 0.00 | 0.00 | 54 | 1015.3 |
| 20260503003003 | 12 | 275 | 0.0 | 1.6 | 0.00 | 0.00 | 0.00 | 54 | 1015.2 |
| 20260503002504 | 12 | 275 | 0.0 | 1.6 | 0.00 | 0.00 | 0.00 | 55 | 1015.1 |
| 20260503002003 | 12 | 275 | 0.0 | 1.6 | 0.00 | 0.00 | 0.00 | 56 | 1015.0 |
| 20260503001503 | 12 | 275 | 0.0 | 1.6 | 0.00 | 0.00 | 0.00 | 54 | 1015.0 |
| 20260503000504 | 12 | 275 | 0.0 | 1.6 | 0.00 | 0.00 | 0.00 | 50 | 1014.9 |
| 20260503000004 | 13 | 275 | 0.0 | 1.6 | 0.00 | 0.00 | 0.00 | 50 | 1014.8 |
| 20260502235503 | 13 | 275 | 0.0 | 3.2 | 0.00 | 0.00 | 0.00 | 52 | 1014.7 |
| 20260502235003 | 13 | 292 | 1.6 | 3.2 | 0.00 | 0.00 | 0.00 | 51 | 1014.6 |
| 20260502234504 | 13 | 292 | 0.0 | 1.6 | 0.00 | 0.00 | 0.00 | 51 | 1014.5 |
| 20260502234004 | 13 | 244 | 0.0 | 3.2 | 0.00 | 0.00 | 0.00 | 51 | 1014.4 |
| 20260502233503 | 13 | 227 | 1.6 | 3.2 | 0.00 | 0.00 | 0.00 | 53 | 1014.4 |
| 20260502233004 | 13 | 205 | 0.0 | 1.6 | 0.00 | 0.00 | 0.00 | 52 | 1014.2 |
| 20260502232504 | 13 | 205 | 0.0 | 1.6 | 0.00 | 0.00 | 0.00 | 51 | 1014.2 |
| 20260502231503 | 13 | 205 | 0.0 | 3.2 | 0.00 | 0.00 | 0.00 | 53 | 1014.0 |
| 20260502230504 | 13 | 131 | 0.0 | 3.2 | 0.00 | 0.00 | 0.00 | 52 | 1013.8 |
| 20260502230003 | 13 | 205 | 0.0 | 1.6 | 0.00 | 0.00 | 0.00 | 50 | 1013.9 |
| 20260502225503 | 14 | 205 | 0.0 | 4.8 | 0.00 | 0.00 | 0.00 | 52 | 1013.8 |
| 20260502225003 | 14 | 123 | 0.0 | 3.2 | 0.00 | 0.00 | 0.00 | 51 | 1013.8 |
| 20260502224504 | 14 | 286 | 1.6 | 3.2 | 0.00 | 0.00 | 0.00 | 50 | 1013.8 |
| 20260502224004 | 14 | 286 | 1.6 | 4.8 | 0.00 | 0.00 | 0.00 | 51 | 1013.7 |
| 20260502223004 | 15 | 291 | 0.0 | 3.2 | 0.00 | 0.00 | 0.00 | 47 | 1013.6 |
| 20260502222503 | 15 | 290 | 0.0 | 3.2 | 0.00 | 0.00 | 0.00 | 46 | 1013.5 |
| 20260502222004 | 15 | 290 | 1.6 | 4.8 | 0.00 | 0.00 | 0.00 | 45 | 1013.4 |
| 20260502221504 | 15 | 303 | 1.6 | 4.8 | 0.00 | 0.00 | 0.00 | 49 | 1013.4 |
| 20260502221004 | 15 | 279 | 1.6 | 4.8 | 0.00 | 0.00 | 0.00 | 46 | 1013.3 |
| 20260502220504 | 15 | 297 | 1.6 | 4.8 | 0.00 | 0.00 | 0.00 | 48 | 1013.2 |
| 20260502220003 | 15 | 259 | 0.0 | 3.2 | 0.00 | 0.00 | 0.00 | 50 | 1013.2 |
| 20260502215004 | 15 | 278 | 0.0 | 4.8 | 0.00 | 0.00 | 0.00 | 49 | 1013.0 |
| 20260502214504 | 15 | 265 | 1.6 | 4.8 | 0.00 | 0.00 | 0.00 | 49 | 1012.9 |
| 20260502214004 | 16 | 259 | 1.6 | 4.8 | 0.00 | 0.00 | 0.00 | 49 | 1012.9 |
| 20260502213503 | 16 | 340 | 0.0 | 3.2 | 0.00 | 0.00 | 0.00 | 50 | 1012.8 |
| 20260502213005 | 16 | 63 | 0.0 | 1.6 | 0.00 | 0.00 | 0.00 | 46 | 1012.6 |
| 20260502212504 | 16 | 63 | 0.0 | 1.6 | 0.00 | 0.00 | 0.00 | 46 | 1012.6 |
| 20260502212004 | 16 | 63 | 0.0 | 4.8 | 0.00 | 0.00 | 0.00 | 47 | 1012.5 |
| 20260502211504 | 16 | 124 | 0.0 | 4.8 | 0.00 | 0.00 | 0.00 | 49 | 1012.4 |
| 20260502211004 | 16 | 119 | 1.6 | 4.8 | 0.00 | 0.00 | 0.00 | 43 | 1012.4 |
| 20260502210003 | 16 | 197 | 0.0 | 0.0 | 0.00 | 0.00 | 0.00 | 47 | 1012.4 |
| 20260502205004 | 17 | 227 | 0.0 | 3.2 | 0.00 | 0.00 | 0.00 | 43 | 1012.3 |
| 20260502204503 | 17 | 227 | 1.6 | 3.2 | 0.00 | 0.00 | 0.00 | 39 | 1012.3 |
| 20260502204003 | 17 | 17 | 0.0 | 3.2 | 0.00 | 0.00 | 0.00 | 40 | 1012.3 |
| 20260502203503 | 17 | 150 | 0.0 | 3.2 | 0.00 | 0.00 | 0.00 | 40 | 1012.3 |
| 20260502202503 | 17 | 148 | 1.6 | 4.8 | 0.00 | 0.00 | 0.00 | 43 | 1012.4 |
| 20260502201503 | 17 | 126 | 0.0 | 3.2 | 0.00 | 0.00 | 0.00 | 41 | 1012.5 |
| 20260502201004 | 17 | 343 | 0.0 | 3.2 | 0.00 | 0.00 | 0.00 | 46 | 1012.5 |
| 20260502200503 | 17 | 100 | 1.6 | 4.8 | 0.00 | 0.00 | 0.00 | 43 | 1012.6 |
| 20260502200004 | 17 | 139 | 0.0 | 4.8 | 0.00 | 0.00 | 0.00 | 44 | 1012.7 |
| 20260502195504 | 17 | 128 | 0.0 | 3.2 | 0.00 | 0.00 | 0.00 | 45 | 1012.8 |
| 20260502195004 | 16 | 76 | 1.6 | 4.8 | 0.00 | 0.00 | 0.00 | 40 | 1012.8 |
| 20260502194504 | 16 | 87 | 1.6 | 4.8 | 0.00 | 0.00 | 0.00 | 41 | 1012.9 |
| 20260502194005 | 16 | 229 | 0.0 | 3.2 | 0.00 | 0.00 | 0.00 | 49 | 1013.0 |
| 20260502193004 | 16 | 136 | 1.6 | 4.8 | 0.00 | 0.00 | 0.00 | 49 | 1013.3 |
| 20260502192504 | 16 | 218 | 1.6 | 4.8 | 0.00 | 0.00 | 0.00 | 46 | 1013.4 |
| 20260502191503 | 15 | 235 | 0.0 | 4.8 | 0.00 | 0.00 | 0.00 | 48 | 1013.4 |
| 20260502185504 | 15 | 225 | 1.6 | 4.8 | 0.00 | 0.00 | 0.00 | 49 | 1013.6 |
| 20260502185004 | 15 | 32 | 1.6 | 4.8 | 0.00 | 0.00 | 0.00 | 50 | 1013.6 |
| 20260502184003 | 15 | 228 | 0.0 | 3.2 | 0.00 | 0.00 | 0.00 | 51 | 1013.7 |
| 20260502183503 | 14 | 229 | 3.2 | 8.0 | 0.00 | 0.00 | 0.00 | 49 | 1013.8 |
| 20260502183004 | 14 | 143 | 1.6 | 4.8 | 0.00 | 0.00 | 0.00 | 49 | 1013.8 |
| 20260502182004 | 15 | 178 | 1.6 | 3.2 | 0.00 | 0.00 | 0.00 | 54 | 1014.0 |
| 20260502181503 | 13 | 243 | 0.0 | 1.6 | 0.00 | 0.00 | 0.00 | 53 | 1014.1 |
| 20260502181003 | 13 | 228 | 1.6 | 4.8 | 0.00 | 0.00 | 0.00 | 49 | 1014.1 |
| 20260502180504 | 13 | 246 | 1.6 | 3.2 | 0.00 | 0.00 | 0.00 | 50 | 1014.2 |
| 20260502164004 | 12 | 172 | 0.0 | 0.0 | 0.00 | 0.00 | 0.00 | 56 | 1015.7 |
| 20260502163003 | 12 | 172 | 0.0 | 1.6 | 0.00 | 0.00 | 0.00 | 57 | 1016.0 |
| 20260502162504 | 12 | 172 | 0.0 | 1.6 | 0.00 | 0.00 | 0.00 | 55 | 1016.0 |
| 20260502162004 | 12 | 61 | 1.6 | 3.2 | 0.00 | 0.00 | 0.00 | 53 | 1016.0 |
| 20260502161504 | 12 | 63 | 1.6 | 4.8 | 0.00 | 0.00 | 0.00 | 54 | 1016.0 |
| 20260502161003 | 11 | 212 | 1.6 | 3.2 | 0.00 | 0.00 | 0.00 | 56 | 1016.0 |
| 20260502160503 | 11 | 136 | 0.0 | 1.6 | 0.00 | 0.00 | 0.00 | 58 | 1016.1 |
| 20260502152004 | 10 | 178 | 0.0 | 0.0 | 0.00 | 0.00 | 0.00 | 73 | 1016.3 |
| 20260502151504 | 10 | 178 | 0.0 | 0.0 | 0.00 | 0.00 | 0.00 | 72 | 1016.5 |
| 20260502151004 | 10 | 178 | 0.0 | 0.0 | 0.00 | 0.00 | 0.00 | 75 | 1016.3 |
| 20260502150504 | 10 | 178 | 0.0 | 0.0 | 0.00 | 0.00 | 0.00 | 72 | 1016.0 |
| 20260502130504 | 10 | 148 | 0.0 | 0.0 | 0.00 | 0.00 | 0.00 | 82 | 1015.6 |
| 20260502122503 | 10 | 148 | 0.0 | 0.0 | 0.00 | 0.00 | 0.00 | 91 | 1014.9 |
| 20260502122004 | 10 | 148 | 0.0 | 0.0 | 0.00 | 0.00 | 0.00 | 91 | 1015.0 |
| 20260502121503 | 10 | 148 | 0.0 | 0.0 | 0.00 | 0.00 | 0.00 | 91 | 1014.9 |
| 20260502120503 | 10 | 148 | 0.0 | 0.0 | 0.00 | 0.00 | 0.00 | 91 | 1015.0 |
| 20260502115505 | 10 | 148 | 0.0 | 0.0 | 0.00 | 0.00 | 0.00 | 90 | 1015.1 |
| 20260502115003 | 9 | 148 | 0.0 | 0.0 | 0.00 | 0.00 | 0.00 | 90 | 1015.1 |
| 20260502114503 | 9 | 148 | 0.0 | 0.0 | 0.00 | 0.00 | 0.00 | 91 | 1015.1 |
| 20260502114003 | 9 | 148 | 0.0 | 0.0 | 0.00 | 0.00 | 0.00 | 91 | 1015.0 |
| 20260502113504 | 9 | 148 | 0.0 | 0.0 | 0.00 | 0.00 | 0.00 | 91 | 1015.0 |
| 20260502113004 | 9 | 148 | 0.0 | 0.0 | 0.00 | 0.00 | 0.00 | 91 | 1015.0 |
| 20260502112504 | 9 | 148 | 0.0 | 0.0 | 0.00 | 0.00 | 0.00 | 91 | 1014.8 |
| 20260502111504 | 9 | 148 | 0.0 | 0.0 | 0.00 | 0.00 | 0.00 | 91 | 1014.8 |
| 20260502111003 | 9 | 148 | 0.0 | 0.0 | 0.00 | 0.00 | 0.00 | 91 | 1014.7 |
| 20260502110004 | 9 | 148 | 0.0 | 0.0 | 0.00 | 0.00 | 0.00 | 92 | 1014.8 |
| 20260502105503 | 8 | 148 | 0.0 | 0.0 | 0.00 | 0.00 | 0.00 | 92 | 1014.8 |
| 20260502104503 | 8 | 148 | 0.0 | 0.0 | 0.00 | 0.00 | 0.00 | 92 | 1014.7 |
| 20260502104003 | 8 | 148 | 0.0 | 0.0 | 0.00 | 0.00 | 0.00 | 91 | 1014.7 |
| 20260502103504 | 9 | 148 | 0.0 | 0.0 | 0.00 | 0.00 | 0.00 | 92 | 1014.6 |
| 20260502103004 | 8 | 148 | 0.0 | 0.0 | 0.00 | 0.00 | 0.00 | 91 | 1014.5 |
| 20260502102504 | 9 | 148 | 0.0 | 0.0 | 0.00 | 0.00 | 0.00 | 91 | 1014.4 |
| 20260502101503 | 9 | 148 | 0.0 | 0.0 | 0.00 | 0.00 | 0.00 | 92 | 1014.8 |
| 20260502100504 | 9 | 148 | 0.0 | 0.0 | 0.00 | 0.00 | 0.00 | 92 | 1014.8 |
| 20260502091503 | 9 | 148 | 0.0 | 0.0 | 0.00 | 0.00 | 0.00 | 92 | 1014.8 |
| 20260502091004 | 10 | 148 | 0.0 | 0.0 | 0.00 | 0.00 | 0.00 | 92 | 1014.8 |
| 20260502090504 | 10 | 148 | 0.0 | 0.0 | 0.00 | 0.00 | 0.00 | 93 | 1014.6 |
| 20260502071505 | 10 | 148 | 0.0 | 0.0 | 0.00 | 0.00 | 0.00 | 93 | 1013.6 |
| 20260502071004 | 10 | 148 | 0.0 | 0.0 | 0.00 | 0.00 | 0.00 | 93 | 1013.6 |
| 20260502070504 | 10 | 148 | 0.0 | 0.0 | 0.00 | 0.00 | 0.00 | 93 | 1013.7 |
| 20260502070004 | 10 | 148 | 0.0 | 0.0 | 0.00 | 0.00 | 0.00 | 92 | 1013.7 |
| 20260502065504 | 10 | 148 | 0.0 | 0.0 | 0.00 | 0.00 | 0.00 | 92 | 1013.7 |
| 20260502065004 | 10 | 148 | 0.0 | 0.0 | 0.00 | 0.00 | 0.00 | 92 | 1013.8 |
| 20260502064504 | 10 | 148 | 0.0 | 0.0 | 0.00 | 0.00 | 0.00 | 92 | 1013.9 |
| 20260502064003 | 10 | 148 | 0.0 | 0.0 | 0.00 | 0.00 | 0.00 | 92 | 1013.9 |
| 20260502063504 | 10 | 148 | 0.0 | 0.0 | 0.00 | 0.00 | 0.00 | 92 | 1014.0 |